Probability
0 0 0 0 0 0 0 0 0 0 0 0 0 0 0 0 0 0 0 0 0 0 0 0 0 0 0 0 0 0 0 0 0 0 0 0 0 0 0 0 0 0 0
0 0 0 0 0 0 0 0 0 0 0 0 0 0 0 0 0 0 0 0 0 0 0 0 0 0 0 0 0 0 0 0 0 0 0 0 0 0 0 0 0 0 0
0 0 0 0 0 0 0 0 0 0 0 0 0 0 0 0 0 0 0 0 0 0 0 0 0 0 0 0 0 0 0 0 0 0 0 0 0 0 0 0 0 0 0
0 0 0 0 0 0 0 0 0 0 0 0 0 0 0 0 0 0 0 0 0 0 0 0 0 0 0 0 0 0 0 0 0 0 0 0 0 0 0 0 0 0 0
0 0 0 0 0 0 0 0 0 0 0 0 0 0 0 0 0 0 0 0 0 0 0 0 0 0 0 0 0 0 0 0 0 0 0 0 0 0 0 0 0 0 0
0 0 0 0 0 0 0 0 0 0 0 0 0 0 0 0 0 0 0 0 0 0 0 0 0 0 0 0 0 0 0 0 0 0 0 0 0 0 0 0 0 0 0
0 0 0 0 0 0 0 0 0 0 0 0 0 0 0 0 0 0 0 0 0 0 0 0 0 0 0 0 0 0 0 0 0 0 0 0 0 0 0 0 0 0 0
0 0 0 0 0 0 0 0 0 0 0 0 0 0 0 0 0 0 0 0 0 0 0 0 0 0 0 0 0 0 0 0 0 0 0 0 0 0 0 0 0 0 0
0 0 0 0 0 0 0 0 0 0 0 0 0 0 0 0 0 0 0 0 0 0 0 0 0 0 0 0 0 0 0 0 0 0 0 0 0 0 0 0 0 0 0
0 0 0 0 0 0 0 0 0 0 0 0 0 0 0 0 0 0 0 0 0 0 0 0 0 0 0 0 0 0 0 0 0 0 0 0 0 0 0 0 0 0 0
0 0 0 0 0 0 0 0 0 0 0 0 0 0 0 0 0 0 0 0 0 0 0 0 0 0 0 0 0 0 0 0 0 0 0 0 0 0 0 0 0 0 0
0 0 0 0 0 0 0 0 0 0 0 0 0 0 0 0 0 0 0 0 0 0 0 0 0 0 0 0 0 0 0 0 0 0 0 0 0 0 0 0 0 0 0
0 0 0 0 0 0 0 0 0 0 0 0 0 0 0 0 0 0 0 0 0 0 0 0 0 0 0 0 0 0 0 0 0 0 0 0 0 0 0 0 0 0 0
0 0 0 0 0 0 0 0 0 0 0 0 0 0 0 0 0 0 0 0 0 0 0 0 0 0 0 0 0 0 0 0 0 0 0 0 0 0 0 0 0 0 0
0 0 0 0 0 0 0 0 0 0 0 0 0 0 0 0 0 0 0 0 0 0 0 0 0 0 0 0 0 0 0 0 0 0 0 0 0 0 0 0 0 0 0
0 0 0 0 0 0 0 0 0 0 0 0 0 0 0 0 0 0 0 0 0 0 0 0 0 0 0 0 0 0 0 0 0 0 0 0 0 0 0 0 0 0 0
0 0 0 0 0 0 0 0 0 0 0 0 0 0 0 0 0 0 0 0 0 0 0 0 0 0 0 0 0 0 0 0 0 0 0 0 0 0 0 0 0 0 0
0 0 0 0 0 0 0 0 0 0 0 0 0 0 0 0 0 0 0 0 0 0 0 0 0 0 0 0 0 0 0 0 0 0 0 0 0 0 0 0 0 0 0
0 0 0 0 0 0 0 0 0 0 0 0 0 0 0 0 0 0 0 0 0 0 0 0 0 0 0 0 0 0 0 0 0 0 0 0 0 0 0 0 0 0 0
0 0 0 0 0 0 0 0 0 0 0 0 0 0 0 0 0 0 0 0 0 0 0 0 0 0 0 0 0 0 0 0 0 0 0 0 0 0 0 0 0 0 0
0 0 0 0 0 0 0 0 0 0 0 0 0 0 0 0 0 0 0 0 0 0 0 0 0 0 0 0 0 0 0 0 0 0 0 0 0 0 0 0 0 0 0
0 0 0 0 0 0 0 0 0 0 0 0 0 0 0 0 0 0 0 0 0 0 0 0 0 0 0 0 0 0 0 0 0 0 0 0 0 0 0 0 0 0 0
0 0 0 0 0 0 0 0 0 0 0 0 0 0 0 0 0 0 0 0 0 0 0 0 0 0 0 0 0 0 0 0 0 0 0 0 0 0 0 0 0 0 0
0 0 0 0 0 0 0 0 0 0 0 0 0 0 0 0 0 0 0 0 0 0 0 0 0 0 0 0 0 0 0 0 0 0 0 0 0 0 0 0 0 0 0
0 0 0 0 0 0 0 0 0 0 0 0 0 0 0 0 0 0 0 0 0 0 0 0 0 0 0 0 0 0 0 0 0 0 0 0 0 0 0 0 0 0 0
0 0 0 0 0 0 0 0 0 0 0 0 0 0 0 0 0 0 0 0 0 0 0 0 0 0 0 0 0 0 0 0 0 0 0 0 0 0 0 0 0 0 0
Height
5844 5843 5841 5839 5837 5835 5832 5829 5826 5823 5820 5817 5814 5810 5807 5804 5800 5797 5793 5790 5786 5782 5778 5775 5771 5767 5764 5760 5756 5753 5749 5746 5743 5740 5737 5734 5732 5729 5727 5725 5723 5721 5720
5840 5838 5836 5834 5832 5829 5827 5824 5821 5818 5814 5811 5808 5804 5801 5797 5793 5790 5786 5782 5779 5775 5771 5767 5763 5759 5756 5752 5748 5745 5741 5738 5734 5731 5728 5725 5722 5720 5718 5715 5713 5711 5710
5834 5833 5831 5829 5826 5824 5821 5818 5815 5812 5808 5805 5801 5798 5794 5790 5787 5783 5779 5775 5771 5768 5764 5760 5756 5752 5748 5744 5740 5737 5733 5729 5726 5723 5719 5716 5713 5711 5708 5706 5704 5702 5700
5829 5827 5825 5823 5820 5818 5815 5812 5809 5806 5802 5799 5795 5791 5788 5784 5780 5776 5772 5768 5764 5760 5756 5752 5748 5744 5740 5736 5733 5729 5725 5721 5718 5714 5711 5707 5704 5702 5699 5696 5694 5692 5690
5823 5821 5819 5817 5814 5812 5809 5806 5803 5799 5796 5792 5788 5785 5781 5777 5773 5769 5765 5761 5757 5753 5749 5745 5741 5737 5733 5729 5725 5721 5717 5713 5709 5706 5702 5699 5695 5692 5689 5687 5684 5682 5680
5817 5815 5813 5811 5808 5805 5802 5799 5796 5793 5789 5786 5782 5778 5774 5770 5766 5762 5758 5754 5750 5746 5742 5737 5733 5729 5725 5721 5717 5712 5708 5704 5700 5697 5693 5689 5686 5683 5680 5677 5674 5672 5670
5810 5809 5807 5804 5801 5799 5796 5793 5790 5786 5783 5779 5775 5771 5767 5763 5759 5755 5751 5747 5743 5738 5734 5730 5726 5721 5717 5713 5708 5704 5699 5695 5691 5688 5684 5680 5677 5673 5670 5667 5664 5661 5659
5804 5802 5800 5797 5795 5792 5789 5786 5783 5779 5776 5772 5768 5764 5761 5757 5753 5748 5744 5740 5735 5731 5726 5722 5718 5713 5709 5704 5700 5695 5691 5686 5682 5678 5674 5670 5667 5663 5660 5656 5653 5650 5648
5796 5795 5792 5790 5788 5785 5782 5779 5776 5772 5769 5765 5761 5758 5753 5750 5746 5742 5737 5732 5728 5723 5719 5714 5709 5705 5700 5695 5691 5686 5681 5677 5672 5668 5664 5660 5656 5652 5649 5645 5642 5639 5636
5789 5787 5785 5783 5780 5778 5775 5772 5768 5765 5762 5758 5754 5750 5746 5742 5738 5734 5730 5725 5720 5715 5710 5706 5701 5696 5691 5686 5681 5676 5672 5667 5662 5658 5653 5649 5645 5641 5637 5633 5629 5626 5623
5782 5780 5778 5775 5773 5770 5767 5764 5761 5758 5754 5751 5747 5743 5739 5734 5730 5726 5722 5717 5712 5707 5701 5696 5691 5686 5681 5676 5671 5666 5661 5656 5651 5646 5641 5637 5632 5628 5624 5619 5616 5612 5608
5774 5772 5770 5768 5765 5763 5760 5757 5754 5750 5747 5743 5739 5735 5731 5727 5722 5718 5713 5708 5704 5698 5693 5687 5681 5676 5670 5665 5660 5654 5649 5644 5638 5633 5628 5623 5618 5614 5609 5604 5599 5595 5591
5766 5764 5762 5760 5758 5755 5752 5749 5746 5743 5739 5736 5732 5728 5723 5719 5714 5709 5704 5699 5694 5689 5683 5677 5671 5665 5659 5654 5648 5642 5637 5631 5625 5619 5614 5608 5603 5597 5592 5587 5581 5576 5571
5758 5757 5755 5753 5750 5748 5745 5742 5739 5735 5732 5728 5724 5720 5715 5710 5706 5700 5695 5690 5685 5680 5674 5667 5661 5654 5648 5642 5636 5630 5624 5617 5611 5604 5598 5592 5586 5580 5573 5567 5561 5555 5550
5750 5749 5747 5745 5743 5740 5737 5734 5731 5728 5724 5720 5716 5712 5707 5702 5697 5691 5686 5680 5675 5669 5664 5657 5650 5644 5637 5630 5623 5616 5610 5603 5596 5588 5581 5574 5568 5561 5554 5547 5540 5534 5528
5743 5741 5739 5737 5735 5733 5730 5727 5723 5720 5716 5712 5708 5703 5698 5693 5688 5682 5676 5670 5664 5658 5652 5646 5639 5632 5624 5617 5609 5602 5595 5587 5579 5571 5563 5555 5548 5540 5533 5525 5518 5512 5506
5735 5733 5732 5730 5727 5725 5722 5719 5715 5712 5708 5704 5699 5695 5690 5684 5679 5673 5666 5660 5654 5647 5641 5635 5627 5619 5611 5603 5595 5587 5579 5570 5562 5554 5545 5537 5528 5520 5512 5505 5497 5490 5484
5727 5726 5724 5722 5720 5717 5714 5711 5707 5704 5700 5696 5691 5686 5681 5675 5669 5663 5657 5650 5643 5636 5629 5623 5615 5606 5598 5589 5580 5571 5562 5553 5545 5536 5527 5518 5509 5500 5492 5484 5476 5469 5462
5719 5718 5716 5714 5712 5709 5706 5703 5699 5696 5691 5687 5682 5677 5672 5666 5660 5653 5647 5640 5633 5625 5617 5610 5602 5593 5584 5574 5565 5556 5546 5536 5527 5517 5508 5499 5489 5480 5471 5463 5455 5448 5442
5711 5710 5708 5706 5704 5701 5698 5695 5691 5687 5683 5678 5673 5668 5662 5656 5650 5643 5636 5629 5622 5614 5605 5597 5588 5579 5569 5558 5548 5539 5530 5519 5510 5500 5490 5480 5470 5461 5452 5444 5437 5430 5424
5703 5702 5700 5698 5696 5693 5690 5686 5683 5679 5674 5669 5664 5659 5653 5646 5640 5633 5626 5618 5610 5602 5593 5583 5574 5564 5554 5543 5533 5523 5513 5503 5493 5482 5472 5462 5453 5444 5436 5428 5421 5414 5408
5695 5694 5692 5690 5688 5685 5682 5678 5674 5670 5665 5660 5655 5649 5643 5637 5630 5623 5615 5607 5598 5589 5579 5570 5559 5549 5538 5527 5517 5506 5496 5487 5478 5468 5456 5447 5437 5429 5421 5413 5406 5400 5394
5688 5686 5684 5682 5680 5677 5673 5670 5665 5661 5656 5651 5646 5640 5634 5627 5620 5612 5604 5596 5586 5575 5565 5555 5544 5533 5522 5512 5502 5492 5481 5470 5461 5451 5441 5433 5423 5415 5408 5400 5394 5388 5383
5680 5678 5676 5674 5671 5668 5665 5661 5657 5652 5647 5642 5637 5631 5624 5617 5609 5602 5593 5584 5574 5563 5553 5541 5530 5519 5507 5496 5486 5476 5466 5457 5447 5437 5428 5420 5412 5404 5396 5390 5384 5378 5374
5672 5670 5668 5666 5663 5660 5656 5652 5648 5643 5638 5633 5627 5621 5614 5607 5599 5591 5582 5572 5562 5550 5539 5527 5516 5504 5493 5482 5472 5462 5452 5443 5435 5426 5417 5409 5401 5394 5387 5381 5376 5371 5367
5663 5662 5660 5657 5654 5651 5647 5643 5639 5635 5630 5624 5618 5612 5605 5597 5588 5578 5569 5559 5548 5537 5526 5515 5503 5492 5481 5470 5460 5450 5440 5431 5423 5415 5407 5399 5392 5385 5380 5374 5369 5365 5361
Wind_Speed
23 24 25 26 27 28 29 30 31 32 33 34 34 34 35 36 36 37 37 37 38 38 38 38 39 39 39 39 39 39 39 39 39 39 39 39 39 39 40 40 40 41 41
25 26 27 28 29 30 31 32 33 34 34 35 35 35 36 36 37 37 37 38 38 38 38 38 39 39 39 39 39 39 39 39 39 39 39 39 39 39 40 40 40 41 41
26 27 28 29 30 32 33 33 34 35 35 35 35 36 37 37 37 37 38 38 37 37 38 38 39 39 39 39 39 38 38 39 39 39 39 39 39 39 39 40 40 41 41
28 29 30 31 32 33 34 34 35 35 35 36 36 36 37 37 37 37 37 37 37 38 38 38 38 38 38 38 38 38 38 39 39 39 39 39 40 40 40 40 40 40 41
30 31 32 33 34 34 35 35 35 36 36 36 37 37 37 37 37 37 37 38 38 38 38 38 38 38 38 38 38 39 39 39 39 39 40 40 40 40 40 40 40 40 41
31 32 33 34 35 35 35 35 36 36 36 37 37 37 37 37 37 37 38 38 38 38 38 39 38 38 39 39 40 40 40 40 40 40 40 40 40 40 40 40 41 41 41
33 34 34 35 35 35 36 36 36 36 37 37 37 37 37 37 37 37 38 38 38 39 39 39 39 39 40 41 41 42 41 41 40 41 41 40 40 41 41 41 42 42 42
34 34 35 35 35 36 36 36 36 36 36 36 37 37 37 37 37 37 38 39 39 39 40 40 40 41 41 42 42 42 42 42 42 42 41 42 42 43 43 43 43 44 44
35 35 35 35 35 36 36 36 36 36 36 36 36 37 37 37 38 38 38 39 40 40 41 41 41 42 43 43 43 43 43 43 43 43 43 44 44 44 44 45 45 46 47
35 35 35 35 35 36 36 36 36 36 36 36 36 37 37 38 38 38 39 40 41 41 42 42 43 44 44 44 45 45 45 45 45 45 46 46 46 47 47 48 49 50 51
35 36 36 35 36 36 36 36 36 36 36 36 36 37 37 38 39 40 40 41 42 43 43 44 45 46 46 47 47 47 47 47 47 48 49 50 50 51 52 53 54 55 56
36 36 36 35 36 36 36 36 35 35 36 36 36 37 38 39 40 41 41 42 43 44 45 46 47 48 48 49 49 49 50 51 51 52 53 54 54 56 57 58 59 61 62
36 36 36 35 35 35 35 35 35 35 36 36 37 38 39 40 40 41 43 43 44 45 46 48 49 50 50 50 51 51 52 53 54 55 57 58 59 60 62 63 65 66 67
36 36 35 35 35 35 35 35 35 35 36 36 37 38 39 41 41 43 44 45 46 47 48 49 50 50 51 52 53 54 55 57 58 59 60 62 63 64 66 67 69 69 68
35 35 35 35 35 34 34 35 35 35 36 37 38 39 40 41 43 45 46 47 48 49 49 49 51 52 53 55 56 58 59 60 61 63 64 66 67 68 69 70 70 70 69
35 35 34 34 34 34 34 34 35 35 36 37 38 39 41 43 44 46 47 48 49 50 50 51 53 54 56 57 59 60 62 63 64 65 67 68 69 69 69 69 69 69 68
34 34 33 33 33 34 34 34 35 36 37 38 39 40 42 44 45 46 47 48 50 52 53 53 55 56 58 60 61 63 64 65 66 67 68 69 69 69 69 69 69 69 68
33 33 33 33 33 34 34 34 35 36 37 39 40 41 43 44 46 47 47 49 51 53 54 55 57 59 60 62 64 66 66 67 68 69 69 70 70 70 70 69 68 67 66
32 32 33 33 33 34 34 35 36 37 38 39 41 42 44 45 46 47 48 50 52 54 56 58 59 61 63 65 66 67 68 69 69 69 70 70 70 70 68 66 65 64 62
32 32 32 33 33 33 34 35 36 37 38 40 41 42 44 45 46 48 50 52 54 56 58 60 62 64 65 67 67 68 68 69 69 70 70 70 68 67 64 62 60 59 57
31 32 32 32 33 33 34 35 36 37 38 40 41 42 44 45 47 49 51 53 55 58 60 62 64 66 67 67 68 68 68 69 69 69 68 67 64 62 59 57 56 54 52
30 31 31 32 33 33 34 35 36 38 39 40 41 42 44 46 48 50 52 54 57 60 62 64 66 67 67 68 67 67 67 67 66 65 64 61 59 56 54 53 51 49 46
30 30 31 32 32 33 35 36 37 38 39 40 41 43 45 47 49 51 53 56 59 62 64 66 67 67 67 66 66 66 65 65 64 61 59 55 54 52 50 47 45 42 39
30 30 31 32 33 34 35 36 37 38 39 41 42 43 45 48 50 53 55 58 61 63 65 66 67 66 65 65 64 64 63 62 59 57 54 51 49 48 45 42 39 36 33
30 31 32 33 34 34 35 36 37 38 40 41 42 44 47 49 52 54 57 60 62 63 64 65 65 64 63 63 62 62 60 58 55 52 50 48 46 43 41 37 34 31 29
30 31 32 33 34 34 35 36 38 39 40 41 43 45 48 51 53 56 58 61 62 63 64 64 63 62 61 60 60 59 57 54 52 49 46 44 41 38 36 33 30 28 26
Wind_Direction
286 289 292 294 296 298 299 300 302 303 303 303 303 303 303 304 304 304 304 304 303 303 302 302 301 300 299 299 298 297 297 295 294 293 292 290 288 287 285 283 281 280 278
286 289 292 295 296 298 299 300 301 302 303 304 304 303 304 304 305 305 305 305 304 304 303 303 302 302 300 300 299 298 298 297 296 294 293 292 290 288 286 284 283 281 279
286 289 292 294 296 298 300 300 301 302 303 304 304 304 305 305 305 305 305 305 305 305 304 304 304 303 302 301 300 300 299 299 298 296 294 292 291 289 287 285 284 282 280
286 289 292 294 296 298 299 300 301 303 303 304 305 305 305 306 306 306 306 306 306 306 306 305 305 304 303 302 302 301 300 299 298 296 295 293 291 290 288 287 285 283 281
286 288 291 294 297 298 299 300 301 303 304 304 305 305 306 306 306 306 306 306 306 306 306 306 305 304 303 303 303 302 301 300 298 297 296 294 293 291 289 288 286 284 282
286 288 291 295 297 298 298 299 301 302 303 304 304 305 305 305 306 306 306 306 306 306 306 306 306 305 304 304 304 303 302 300 299 298 296 295 294 292 290 289 287 285 283
286 288 292 295 296 297 298 299 301 302 303 303 304 304 305 305 305 306 306 306 306 306 306 306 306 305 305 305 304 304 302 301 300 299 297 296 294 293 291 290 288 286 284
286 289 291 293 295 296 297 299 301 301 302 303 303 304 304 305 305 305 306 306 306 306 306 306 306 305 306 305 305 304 303 302 301 299 298 296 295 294 292 290 288 286 284
286 288 290 292 294 295 297 299 300 300 301 302 303 304 304 305 305 305 305 305 306 306 306 305 305 305 305 305 305 304 303 302 301 299 298 296 295 294 292 290 288 286 284
285 287 290 291 293 295 296 298 299 300 300 301 302 303 304 304 304 305 305 306 306 305 305 305 305 305 305 305 304 303 303 302 300 299 298 296 295 293 292 290 288 287 285
284 287 289 291 292 294 295 297 298 299 300 301 302 303 303 304 304 305 305 306 305 305 305 305 305 305 305 304 304 303 303 302 300 299 297 296 294 293 292 290 288 287 285
284 286 288 290 292 293 295 296 297 298 300 301 301 302 303 303 303 304 305 305 305 305 305 305 305 305 304 304 304 303 303 302 300 299 297 295 294 293 292 290 289 288 286
284 286 287 289 291 292 294 295 297 298 299 300 301 302 302 302 302 303 304 304 305 305 305 305 305 304 304 304 304 303 303 302 301 299 298 296 295 294 292 291 290 288 286
282 284 286 288 290 292 293 294 296 298 299 300 301 301 301 301 302 303 304 305 305 305 305 305 305 304 304 304 304 303 303 302 301 300 298 297 296 295 293 292 291 289 286
281 284 285 287 289 291 292 294 296 297 299 300 301 301 302 302 303 304 305 305 305 306 306 305 304 304 304 304 303 303 303 302 301 300 299 298 297 296 295 293 292 290 287
280 282 285 287 288 290 291 294 296 297 299 300 300 301 302 302 303 305 305 305 306 306 306 306 305 305 305 304 304 304 303 303 302 301 300 300 299 298 297 295 293 291 289
279 282 284 285 288 289 292 294 295 297 299 299 301 302 302 303 304 305 305 305 306 306 307 307 306 306 305 305 305 304 304 304 303 302 302 301 300 299 298 296 294 292 290
279 281 282 285 288 290 292 293 295 297 298 299 301 302 302 304 305 306 306 306 306 307 308 307 307 306 306 306 305 305 305 305 304 304 303 302 302 300 299 297 295 294 292
278 280 282 285 287 289 292 293 295 297 298 300 301 302 303 305 306 306 306 306 307 308 308 308 308 307 307 307 306 306 306 306 305 305 304 304 303 302 300 299 297 295 293
278 280 282 285 287 290 292 294 296 297 299 300 302 303 304 306 306 306 306 307 308 309 309 308 308 308 308 307 307 307 307 307 306 306 306 305 304 303 302 300 299 297 295
277 280 283 285 287 290 292 294 296 298 299 301 302 304 306 307 307 307 308 308 309 310 309 309 309 309 308 308 308 308 308 308 308 308 307 306 305 304 303 302 300 299 297
278 281 284 286 288 290 292 295 297 298 300 302 304 306 307 308 308 309 309 310 311 311 310 310 310 310 309 309 309 309 309 310 310 310 309 308 307 306 305 303 302 301 300
278 281 284 287 289 291 293 295 297 299 301 303 305 307 308 309 309 310 310 311 312 311 311 311 312 311 311 310 310 311 311 312 312 312 311 310 309 309 308 306 305 304 303
279 282 285 287 290 292 294 296 298 300 302 304 306 307 309 310 310 311 312 313 313 312 312 312 312 312 312 312 312 312 313 313 313 313 313 312 312 311 310 309 308 307 306
279 282 285 288 290 292 294 297 299 301 303 305 307 308 310 311 312 312 313 314 314 314 314 314 314 313 313 313 314 314 314 314 315 313 313 313 313 312 311 311 311 309 308
281 284 286 289 291 293 295 297 300 301 304 306 308 309 311 313 314 314 315 315 315 315 315 315 315 315 315 315 315 316 316 316 316 314 314 314 314 314 313 312 312 312 311